TimeMST,TemperatureF,Dew PointF,Humidity,Sea Level PressureIn,VisibilityMPH,Wind Direction,Wind SpeedMPH,Gust SpeedMPH,PrecipitationIn,Events,Conditions,WindDirDegrees,DateUTC
12:53 AM,32.0,19.9,61,29.94,10.0,Calm,Calm,-,N/A,,Partly Cloudy,0,2012-11-25 07:53:00
1:53 AM,30.9,21.0,67,29.93,10.0,NNE,4.6,-,N/A,,Overcast,30,2012-11-25 08:53:00
2:53 AM,32.0,21.9,66,29.93,10.0,Calm,Calm,-,N/A,,Overcast,0,2012-11-25 09:53:00
3:53 AM,32.0,21.9,66,29.92,10.0,Calm,Calm,-,N/A,,Overcast,0,2012-11-25 10:53:00
4:53 AM,33.1,21.9,64,29.92,10.0,NW,3.5,-,N/A,,Overcast,320,2012-11-25 11:53:00
5:53 AM,34.0,23.0,64,29.95,10.0,Calm,Calm,-,N/A,,Overcast,0,2012-11-25 12:53:00
6:53 AM,34.0,24.1,67,29.94,10.0,East,6.9,-,N/A,,Overcast,100,2012-11-25 13:53:00
7:53 AM,35.1,25.0,67,29.93,10.0,SE,4.6,-,N/A,,Scattered Clouds,130,2012-11-25 14:53:00
8:53 AM,41.0,26.1,55,29.92,10.0,SE,8.1,-,N/A,,Clear,130,2012-11-25 15:53:00
9:53 AM,43.0,25.0,49,29.90,10.0,ESE,11.5,-,N/A,,Clear,120,2012-11-25 16:53:00
10:53 AM,48.0,25.0,41,29.87,10.0,ESE,11.5,-,N/A,,Clear,110,2012-11-25 17:53:00
11:53 AM,48.0,26.1,42,29.84,10.0,SE,9.2,-,N/A,,Clear,130,2012-11-25 18:53:00
12:53 PM,48.0,27.0,44,29.83,10.0,East,11.5,-,N/A,,Overcast,100,2012-11-25 19:53:00
1:53 PM,46.9,28.0,48,29.84,10.0,East,12.7,-,N/A,,Overcast,80,2012-11-25 20:53:00
2:53 PM,46.9,28.0,48,29.84,10.0,East,12.7,-,N/A,,Mostly Cloudy,100,2012-11-25 21:53:00
3:53 PM,45.0,28.0,52,29.86,10.0,ENE,5.8,-,N/A,,Clear,70,2012-11-25 22:53:00
4:53 PM,41.0,28.9,62,29.90,10.0,NE,15.0,-,N/A,,Mostly Cloudy,40,2012-11-25 23:53:00
5:53 PM,37.0,30.9,79,29.94,10.0,NNE,20.7,-,N/A,,Partly Cloudy,30,2012-11-26 00:53:00
6:53 PM,35.1,32.0,89,29.98,10.0,NNE,20.7,-,N/A,,Overcast,30,2012-11-26 01:53:00
7:53 PM,34.0,30.9,89,30.01,10.0,NE,15.0,-,N/A,,Overcast,40,2012-11-26 02:53:00
8:06 PM,33.8,30.2,87,29.97,10.0,NE,15.0,-,N/A,,Overcast,40,2012-11-26 03:06:00
8:53 PM,34.0,30.0,85,30.03,10.0,NE,13.8,18.4,N/A,,Overcast,50,2012-11-26 03:53:00
9:53 PM,33.1,30.0,89,30.04,10.0,ENE,11.5,-,N/A,,Overcast,60,2012-11-26 04:53:00
10:53 PM,33.1,28.0,82,30.07,8.0,NE,8.1,-,0.00,Snow,Light Snow,50,2012-11-26 05:53:00
11:09 PM,30.2,28.4,93,30.06,2.5,NE,11.5,-,0.00,Snow,Light Snow,50,2012-11-26 06:09:00
11:18 PM,30.2,28.4,93,30.06,4.0,NE,12.7,-,0.00,Snow,Light Snow,50,2012-11-26 06:18:00
11:34 PM,30.2,28.4,93,30.07,4.0,NE,11.5,-,0.00,Snow,Light Snow,50,2012-11-26 06:34:00
11:53 PM,30.0,28.0,92,30.10,9.0,NE,12.7,-,0.00,Snow,Light Snow,50,2012-11-26 06:53:00